109  
ASUS44 KSHV 102310  
RWRSHV  
 
THE FOUR STATE AREA WEATHER ROUNDUP  
NATIONAL WEATHER SERVICE SHREVEPORT LA  
600 PM CDT SAT APR 10 2021  
 
NOTE: "FAIR" INDICATES FEW OR NO CLOUDS BELOW 12000 FEET  
WITH NO SIGNIFICANT WEATHER AND/OR S TO VISIBILITY
.  
 
!LAZ001-LAZ014-TXZ097-110000  
SHREVEPORT...MONROE...TEXARKANA RADIOS  
 
CITY SKY/WX TMP DP RH WIND PRES REMARKS
 
SHREVEPORT SUNNY 74 38 27 NW16 29.75S  
MONROE SUNNY 74 48 39 NW10 29.72S  
NATCHITOCHES SUNNY 74 44 34 NW10G17 29.75R  
TEXARKANA SUNNY 69 42 37 W16G22 29.77S  

 
 
!LAZ001-LAZ014-TXZ097-110000  
OTHER LOCATIONS...  
 
CITY SKY/WX TMP DP RH WIND PRES REMARKS
 
DOWNTOWN SHV SUNNY 71 42 35 NW9 29.75S  
BOSSIER CITY SUNNY 70 44 37 NW16 29.75S  
RUSTON SUNNY 72 38 29 W5 29.77S  
LITTLE ROCK MOSUNNY 63 41 44 NW15G30 29.73S  
EL DORADO SUNNY 70 45 40 W10 29.74S  
JACKSON MOSUNNY 77 58 51 W9 29.69S  
NEW ORLEANS PTSUNNY 76 66 71 S9 29.74S  
HOUSTON MOSUNNY 82 43 25 N14 29.73S  
LUFKIN SUNNY 76 39 26 NW6 29.76F  
TYLER SUNNY 71 38 29 NW12 29.79F  
DAL FT WORTH MOSUNNY 73 29 19 N14G21 29.79F  

 
 
!TXZ136-TXZ165-110000  
TYLER...LUFKIN RADIOS  
 
CITY SKY/WX TMP DP RH WIND PRES REMARKS
 
TYLER SUNNY 71 38 29 NW12 29.79F  
GILMER CLEAR 68 41 36 NW7 29.79F  
LONGVIEW SUNNY 71 39 31 NW12 29.77F  
LUFKIN SUNNY 76 39 26 NW6 29.76F  

 
 
!TXZ136-TXZ165-110000  
OTHER LOCATIONS...  
 
CITY SKY/WX TMP DP RH WIND PRES REMARKS
 
NACOGDOCHES SUNNY 73 41 31 N14 29.78F  
BEAUMONT SUNNY 82 53 36 N8 29.70F  
HOUSTON MOSUNNY 82 43 25 N14 29.73S  
COLLEGE STN SUNNY 77 38 24 N16 29.77F  
AUSTIN SUNNY 76 34 21 NE17 29.77F  
DAL FT WORTH MOSUNNY 73 29 19 N14G21 29.79F  
TEXARKANA SUNNY 69 42 37 W16G22 29.77S  
SHREVEPORT SUNNY 74 38 27 NW16 29.75S  
FORT POLK SUNNY 76 50 39 NW7 29.73S  
LAKE CHARLES PTSUNNY 82 64 54 VRB3 29.71F  

 
 
 
CLICK HERE TO GO TO PREVIOUS BULLETINS.

The Nexlab LA Page
The Nexlab TX Page
The Nexlab AR Page
The Nexlab OK Page Main Text Page